| time (UTC) | temp F | wind direction | speed MPH | gust MPH | rain 1hr in | rain 24hr in | rain mn in | humidity % | barometer mb |
| 20260505041605 | 62 | 157 | 0.0 | 0.0 | 0.00 | 0.00 | 0.00 | 97 | 1012.0 |
| 20260505040059 | 62 | 157 | 0.0 | 0.0 | 0.00 | 0.00 | 0.00 | 97 | 1011.9 |
| 20260505034558 | 62 | 157 | 0.0 | 0.0 | 0.00 | 0.00 | 0.00 | 96 | 1012.0 |
| 20260505033057 | 62 | 157 | 0.0 | 0.0 | 0.00 | 0.00 | 0.00 | 96 | 1011.9 |
| 20260505031555 | 62 | 157 | 0.0 | 0.0 | 0.00 | 0.00 | 0.00 | 96 | 1011.8 |
| 20260505030111 | 62 | 157 | 0.0 | 0.0 | 0.00 | 0.00 | 0.00 | 96 | 1011.7 |
| 20260505024559 | 63 | 107 | 0.0 | 0.0 | 0.00 | 0.00 | 0.00 | 96 | 1011.7 |
| 20260505023054 | 62 | 107 | 0.0 | 0.0 | 0.00 | 0.00 | 0.00 | 96 | 1011.7 |
| 20260505021552 | 63 | 107 | 0.0 | 0.0 | 0.00 | 0.00 | 0.00 | 96 | 1011.5 |
| 20260505020051 | 63 | 107 | 0.0 | 0.0 | 0.00 | 0.00 | 0.00 | 96 | 1011.5 |
| 20260505014606 | 63 | 107 | 0.0 | 0.0 | 0.00 | 0.00 | 0.00 | 96 | 1011.5 |
| 20260505013052 | 63 | 107 | 0.0 | 0.0 | 0.00 | 0.00 | 0.00 | 96 | 1011.8 |
| 20260505011547 | 63 | 107 | 0.0 | 0.0 | 0.00 | 0.00 | 0.00 | 96 | 1011.9 |
| 20260505010054 | 63 | 107 | 0.0 | 2.0 | 0.00 | 0.00 | 0.00 | 95 | 1011.9 |
| 20260505004550 | 63 | 107 | 0.0 | 1.0 | 0.00 | 0.00 | 0.00 | 95 | 1012.0 |
| 20260505003054 | 64 | 179 | 0.0 | 2.0 | 0.00 | 0.00 | 0.00 | 95 | 1012.0 |
| 20260505001542 | 64 | 179 | 0.0 | 1.0 | 0.00 | 0.00 | 0.00 | 95 | 1012.3 |
| 20260505000038 | 64 | 179 | 0.0 | 0.0 | 0.00 | 0.00 | 0.00 | 95 | 1012.5 |
| 20260504234536 | 64 | 179 | 0.0 | 3.0 | 0.00 | 0.00 | 0.00 | 94 | 1012.6 |
| 20260504233037 | 65 | 202 | 0.0 | 2.0 | 0.00 | 0.00 | 0.00 | 94 | 1012.6 |
| 20260504231533 | 65 | 202 | 0.0 | 0.0 | 0.00 | 0.00 | 0.00 | 94 | 1012.5 |
| 20260504230030 | 65 | 202 | 0.0 | 0.0 | 0.00 | 0.00 | 0.00 | 94 | 1012.6 |
| 20260504224528 | 66 | 202 | 0.0 | 1.0 | 0.00 | 0.01 | 0.00 | 93 | 1012.8 |
| 20260504223032 | 66 | 202 | 0.0 | 0.0 | 0.00 | 0.01 | 0.00 | 93 | 1013.0 |
| 20260504221524 | 66 | 202 | 0.0 | 1.0 | 0.00 | 0.01 | 0.00 | 93 | 1013.2 |
| 20260504220023 | 67 | 202 | 0.0 | 2.0 | 0.00 | 0.01 | 0.00 | 92 | 1013.3 |
| 20260504214523 | 67 | 182 | 0.0 | 0.0 | 0.00 | 0.01 | 0.00 | 92 | 1013.4 |
| 20260504213026 | 67 | 182 | 0.0 | 3.0 | 0.00 | 0.01 | 0.00 | 92 | 1013.6 |
| 20260504211532 | 67 | 183 | 3.0 | 6.0 | 0.00 | 0.01 | 0.00 | 91 | 1013.7 |
| 20260504210019 | 67 | 181 | 2.0 | 4.0 | 0.00 | 0.01 | 0.00 | 92 | 1013.7 |
| 20260504204519 | 68 | 163 | 0.0 | 1.0 | 0.00 | 0.05 | 0.00 | 90 | 1013.7 |
| 20260504203016 | 68 | 92 | 0.0 | 2.0 | 0.00 | 0.05 | 0.00 | 90 | 1013.6 |
| 20260504194523 | 70 | 122 | 0.0 | 1.0 | 0.00 | 0.05 | 0.00 | 87 | 1013.8 |
| 20260504184622 | 74 | 144 | 0.0 | 2.0 | 0.00 | 0.06 | 0.00 | 80 | 1013.8 |
| 20260504183009 | 74 | 54 | 1.0 | 5.0 | 0.00 | 0.06 | 0.00 | 75 | 1013.7 |
| 20260504181605 | 75 | 4 | 2.0 | 4.0 | 0.00 | 0.06 | 0.00 | 75 | 1013.9 |
| 20260504180005 | 74 | 41 | 2.0 | 4.0 | 0.00 | 0.06 | 0.00 | 79 | 1013.8 |
| 20260504174502 | 74 | 35 | 1.0 | 3.0 | 0.00 | 0.06 | 0.00 | 80 | 1013.6 |
| 20260504173001 | 75 | 344 | 0.0 | 2.0 | 0.00 | 0.06 | 0.00 | 78 | 1013.6 |
| 20260504171501 | 76 | 28 | 0.0 | 3.0 | 0.00 | 0.06 | 0.00 | 75 | 1013.5 |
| 20260504081554 | 79 | 134 | 0.0 | 4.0 | 0.00 | 0.06 | 0.00 | 82 | 1017.7 |
| 20260504050021 | 71 | 150 | 0.0 | 1.0 | 0.00 | 0.06 | 0.00 | 97 | 1018.3 |